Showing default

RISAT-2BR2, 46905

Orbit data source: Space-Track

RISAT-2BR2, 46905 is a payload satellite owned by ISRO (IN) in LEO that was launched on Sat, 07 Nov 2020 UTC via a PSLV-DL launch vehicle from the Sirharikota (SRI). Payload-class satellites include a variety of spacecraft equipped with specific instruments for various scientific and technological missions. These include communications satellites like Starlink; space stations such as the ISS; scientific satellites like the Hubble; Earth observation satellites from companies like Planet Labs, Umbra, and HawkEye 360; GPS; miniature CubeSats for education and research; and military/defense satellites.

Loading next visibility...
Identifier
46905, 2020-081A
Orbit
LEO
Country
Flag of ININ / IND
Related business
Manufacturer
ISRO
Mission
Operational Civil Radar Imaging
Bus & Motor
TECHSAR, Unknown motor
Mass
628 kg wet, 628 kg dry
Launch date (UTC)
Icon of a cake. It is the launch day of the satellite!2020-11-07 (5 years ago)
Launch vehicle
PSLV-DL
Launch site
Sirharikota (SRI)
Object type
Payload
Rocket body
Debris
Shape & HBR
Hex Cyl + 2 Pan + 1 Dish, Unknown HBR
Radar Cross Section
2.910 m², Large (>1 m²)

Expand to show TLE details & history
Last TLE update: 9 hours ago

TLE from 9 hours ago
0 RISAT-2BR2
1 46905U 20081A   25310.89337311  .00005806  00000-0  45112-3 0  9996
2 46905  36.8971 103.9515 0015080 135.1072 225.0891 15.00981787274047
Epoch: 2025-11-06T21:26Z
TLE epoch observation values (Epoch: 2025-11-06T21:26:27.436Z)
Latitude
-0.00001°
Longitude
95.99201°
Altitude
570.381 km
Speed
7.574 km/s
True Right ascension
06h 55m 48s
True Declination
0° 00' 00"
Sunlit
Object was in full shadow at epoch
Visualization orbit readout
Latitude
Unknown
Longitude
Unknown
Altitude
Unknown
Speed
Unknown
Apparent Right ascension
Unknown
Apparent Declination
Unknown
Sunlit
N/A
Visualization observer readout
Local Sidereal Time
02:56:18
Azimuth
Unknown
Elevation
Unknown
Doppler factor
Unknown
Orbital elements
Apogee altitude
577.26 km
Perigee altitude
556.314 km
Semi-major axis
6,944.924 km
Eccentricity
0.00151
Inclination
36.8971°
RAAN
103.9515°
Arg. of periapsis
135.1072°
True anomaly
224.96688°
Mean anomaly
225.0891°
Eccentric anomaly
225.02797°
Mean motion
3.75009 °/min
Orbital period
96 mins
BSTAR
0.00045112
Loading maneuver chart data...
Computing Atmospheric mass density...
Loading historical data...
Loading historical data...
Loading historical data...
Loading historical data...
Loading historical data...
Loading historical data...
Loading historical data...

Documentation

Showing up to 5 results
|